Terminal Aerodrome Forecast
Issued by NWS Los Angeles, CA

Home | Current Version | Previous Version | Text Only | Print | Product List | Glossary On
Versions: 1 2 3 4 5 6 7 8 9 10 11 12 13 14 15 16 17 18 19 20 21 22 23 24 25
000
FTUS46 KLOX 201700
TAFSMX
TAF
KSMX 201726Z 2018/2118 00000KT P6SM OVC023
     FM201900 31010KT P6SM FEW020
     FM210300 31008KT P6SM BKN020
     FM210600 VRB03KT P6SM OVC015=

USA.gov is the U.S. government's official web portal to all federal, state and local government web resources and services.